Voltar ao catálogo

SL-12 DEB

LostHEO
NORAD 41682·DEBRIS·🇷🇺 Russia

Lançado Oct 26, 2007 de Baikonur Cosmodrome

Loading…

Próximas Passagens (próximas 24 horas)

TLE

ObsoletoSource: Space-Track

Época: Feb 11, 2018, 23:57 UTC

1 41682U 07052P   18042.99808065 -.00022716 +00000-0 -10711+0 0  9994
2 41682 065.2632 329.3644 5698839 008.4633 357.2628 04.20895337053372

Acompanhe SL-12 DEB em tempo real com AllMySat

Download on the App Store